Location: G�ppingen
(48.7089°N, 9.6563°E)
Time: 00:01:57
(UTC+02:00)

M-CUBED/EXP-1 PRIME - Pass Details

Date: 29 March 2019
Orbit: 430 x 671 km, 101.7° (Epoch: 20 April)

Event Time Altitude Azimuth Distance (km) Brightness Sun altitude
Rises 21:39:10 0° 12° (NNE) 2,985 ? -26.4°
Reaches altitude 10° 21:41:30 10° 4° (N) 2,089 ? -26.7°
Maximum altitude 21:45:40 36° 299° (WNW) 1,066 ? -27.2°
Drops below altitude 10° 21:49:51 10° 234° (SW) 2,099 ? -27.7°
Enters shadow 21:52:00 - 226° (SW) 2,925 ? -28.0°
